User: anonymous   Login
Location: Bishopstone
(51.0167°N, 1.9000°W)
Time: 09:06:05
(UTC+00:00)
Language:

SO-50 - Orbit

View from above orbital plane
View from above orbital plane
View from above satellite
View from above satellite

Ground track
Ground track

The orbit data is extracted from the following two-line orbital elements,

1 27607U 02058C   20026.16654199 -.00000035  00000-0  15845-4 0  9994
2 27607  64.5555  92.4584 0065382 212.2846 147.4248 14.75604818919716
Epoch (UTC): 26 January 2020 03:59:49
Eccentricity: 0.0065382
inclination: 64.5555°
perigee height: 597 km
apogee height: 689 km
right ascension of ascending node: 92.4584°
argument of perigee: 212.2846°
revolutions per day: 14.75604818
mean anomaly at epoch: 147.4248°
orbit number at epoch: 91971

The dashed part of the orbit path shows where the satellite is in the earth's shadow,  

DLR